Regional Weather Roundup
Issued by NWS

Home | Current Version | Previous Version | Graphics & Text | Print | Product List | Glossary On
Versions: 1 2 3 4 5 6 7 8 9 10 11 12 13 14 15 16 17 18 19 20 21 22 23 24 25 26 27 28 29 30 31 32 33 34 35 36 37 38 39 40 41 42 43 44 45 46 47 48 49 50
000
ASUS44 KMEG 231310
RWRTN
TENNESSEE HOURLY STATE WEATHER ROUNDUP
NATIONAL WEATHER SERVICE MEMPHIS TN
800 AM CDT WED AUG 23 2017

TNZ002-004-019-021-049-052-054-088>092-231400-
WEST TENNESSEE

CITY           SKY/WX    TMP DP  RH WIND       PRES   REMARKS
MEMPHIS INTL   PTSUNNY   78  72  81 NE8       30.03R
NWS MEMPHIS      N/A     76 N/A N/A MISG        N/A
JACKSON        PTSUNNY   72  70  93 N6        30.06R
DYERSBURG      PTSUNNY   71  65  81 NE7       30.07R
SOMERVILLE     SUNNY     73  70  88 VRB3      30.03S
COVINGTON      CLOUDY    72  68  88 NE7       30.05R
BOLIVAR        SUNNY     73  70  88 N6        30.03S
PARIS          CLOUDY    68  66  94 N5        30.05S
HUNTINGDON     CLOUDY    70  68  94 N3        30.05S
LEXINGTON      CLOUDY    70  70 100 N5        30.04R FOG
SELMER         MOSUNNY   72  70  94 N6        30.04R
SAVANNAH       CLOUDY    72  72 100 N6        30.02F
$$

TNZ008-025-027-028-033-062-065-066-231400-
NORTH MIDDLE TENNESSEE

CITY           SKY/WX    TMP DP  RH WIND       PRES   REMARKS
NASHVILLE      PTSUNNY   72  68  87 N3        30.04R
PORTLAND       MOSUNNY   68  68 100 N6        30.03S
CLARKSVILLE    MOSUNNY   69  65  86 N6        30.05R
SMYRNA         MOSUNNY   72  69  90 NW7       30.04R
COOKEVILLE     PTSUNNY   72  70  94 VRB6      30.02S
GALLATIN       SUNNY     72  68  88 CALM      30.05S
CROSSVILLE     MOSUNNY   70  66  87 NW8       30.05S
$$

TNZ061-075-076-078-094-096-097-231400-
SOUTH MIDDLE TENNESSEE

CITY           SKY/WX    TMP DP  RH WIND       PRES   REMARKS
FAYETTEVILLE   CLOUDY    72  70  94 N7        30.03R FOG
TULLAHOMA        N/A     70  66  88 N7        30.05R
WINCHESTER     CLOUDY    72  70  94 N7        30.03S
MCMINNVILLE    SUNNY     73  73 100 N8        30.03S
COLUMBIA       PTSUNNY   72  72 100 N3        30.02R
SHELBYVILLE    PTSUNNY   72  70  94 N8        30.03S
$$

TNZ017-018-042-046-047-231400-
NORTHEAST TENNESSEE

CITY           SKY/WX    TMP DP  RH WIND       PRES   REMARKS
TRI CITIES     CLOUDY    74  69  85 NW7       29.99S
ELIZABETHTON   PTSUNNY   73  68  83 CALM      29.99S
$$

TNZ012-013-036-069-073-074-231400-
CENTRAL EAST TENNESSEE

CITY           SKY/WX    TMP DP  RH WIND       PRES   REMARKS
KNOXVILLE      CLOUDY    74  67  78 N5        29.98S
OAK RIDGE      MOSUNNY   78  68  71 CALM      30.00S
DOWNTOWN KNOXV CLOUDY    73  72  94 CALM      29.98S
GATLINBURG     CLOUDY    72  70  94 W5        29.99R
MORRISTOWN     CLOUDY    73  70  88 NW3       29.99R
JACKSBORO      SUNNY     75  68  78 CALM      30.03F
$$

TNZ083-085-099-231400-
SOUTHEAST TENNESSEE

CITY           SKY/WX    TMP DP  RH WIND       PRES   REMARKS
CHATTANOOGA    MOSUNNY   77  69  76 NW5       30.00R
DAYTON         MOSUNNY   77  72  83 VRB3      29.98S
$$

SKY/WX REPORTED AS FAIR MEANS FEW OR NO CLOUDS BELOW
12 THOUSAND FEET.




USA.gov is the U.S. government's official web portal to all federal, state and local government web resources and services.